Flag for Sweden Weather past 2 weeks in Västerås, Sweden

Now
48 °F

Passing clouds.


Feels Like: 43 °F
Forecast: 51 / 56 °F
Wind: 12 mph from South

Location: Vasteras / Hasslo

Current Time: Oct 26, 2014 at 3:22:43 AM

Latest Report: Oct 26, 2014 at 2:20 AM


Visibility: N/A

Pressure: 29.95 "Hg

Humidity: 94%

Dew point: 46 °F

Location of VästeråsLocation

Historic Weather in Västerås — Graph

°F

Västerås temperature yesterday

Maximum temperature yesterday: 50 °F (at 1:50 PM)
Minimum temperature yesterday: 48 °F (at 1:20 PM)
Average temperature yesterday: 50 °F

Past Weeks' High & Low Weather Summary

 TemperatureHumidityPressure
High59 °F (Oct 11, 3:20 PM)100% (Oct 11, 8:50 PM)30.27 "Hg (Oct 11, 8:50 PM)
Low32 °F (Oct 16, 2:50 AM)61% (Oct 17, 3:50 PM)29.33 "Hg (Oct 20, 6:50 AM)
Average45 °F88%29.92 "Hg
* Reported Oct 11 3:20 AM — Oct 26 2:20 AM, Västerås, Weather by CustomWeather, © 2014

Note: Actual official high and low records may vary slightly from our data, if they occured in-between our weather recording intervals... More about our weather records

Advertising

Västerås weather history for previous 24 hours

 ConditionsComfort  
Time TempWeatherWind HumidityBarometerVisibility
2:20 AM
Oct 26
48 °FPassing clouds.12 mph94%29.95 "HgN/A
2:50 AM50 °FPartly cloudy.12 mph88%29.95 "HgN/A
2:20 AM50 °FPartly cloudy.12 mph94%29.95 "HgN/A
1:50 AM50 °FOvercast.12 mph94%29.95 "HgN/A
1:20 AM50 °FOvercast.9 mph94%29.95 "HgN/A
12:50 AM50 °FPartly cloudy.10 mph88%29.95 "HgN/A
12:20 AM50 °FOvercast.12 mph94%29.95 "HgN/A
11:50 PM
Oct 25
50 °FOvercast.13 mph94%29.95 "HgN/A
11:20 PM50 °FOvercast.12 mph94%29.95 "HgN/A
10:50 PM50 °FOvercast.12 mph94%29.95 "HgN/A
10:20 PM50 °FOvercast.12 mph94%29.95 "HgN/A
9:50 PM50 °FOvercast.10 mph94%29.95 "HgN/A
9:20 PM50 °FOvercast.9 mph94%29.95 "HgN/A
8:50 PM50 °FOvercast.9 mph88%29.95 "HgN/A
8:20 PM50 °FOvercast.12 mph88%29.95 "HgN/A
7:50 PM50 °FPartly cloudy.10 mph88%29.95 "HgN/A
7:20 PM50 °FPartly cloudy.10 mph94%29.95 "HgN/A
6:50 PM50 °FMostly cloudy.10 mph94%29.95 "HgN/A
6:20 PM50 °FMostly cloudy.10 mph94%29.95 "HgN/A
5:50 PM50 °FOvercast.9 mph94%29.95 "HgN/A
5:20 PM50 °FLow clouds.9 mph94%29.95 "HgN/A
4:50 PM50 °FFog.9 mph94%29.95 "Hg4 mi
4:20 PM50 °FLow clouds.12 mph94%29.95 "HgN/A
3:50 PM50 °FLow clouds.13 mph94%29.95 "HgN/A
3:20 PM50 °FFog.13 mph94%29.95 "Hg5 mi
2:50 PM50 °FFog.13 mph88%29.92 "Hg6 mi
2:20 PM50 °FFog.13 mph88%29.92 "Hg6 mi
1:50 PM50 °FFog.14 mph88%29.92 "Hg6 mi
1:20 PM48 °FDrizzle. Broken clouds.15 mph94%29.92 "Hg4 mi
Weather by CustomWeather, © 2014

See weather overviewHow to use our weather pages